, AK

(GMT )
Denali Park

Weather History for PAIN - June, 2019

Change the Weather History Date:

Wednesday, June 12, 2019

  Actual Average Record
Temperature  
Mean Temperature 54 °F -  
Max Temperature 66 °F 65 °F 87 °F (1967)
Min Temperature 42 °F 38 °F 25 °F (1951)
Degree Days  
Heating Degree Days 11    
Growing Degree Days 4 (Base 50)    
Moisture  
Dew Point 43 °F    
Average Humidity 68    
Maximum Humidity 90    
Minimum Humidity 38    
Precipitation  
Precipitation 0.05 in - - ()
Sea Level Pressure  
Sea Level Pressure 29.89 in    
Wind  
Wind Speed 2 mph (SW)    
Max Wind Speed 10 mph    
Max Gust Speed 17 mph    
Visibility 10 miles    
Events Rain    
Averages and records for this station are not official NWS values.
T = Trace of Precipitation, MM = Missing Value Source: NWS Daily Summary

Daily Weather History Graph

Daily Weather History Graph

Search for Another Location

Airport or City:

Astronomy

Jun. 12, 2019 Rise Set
Actual Time 3:37 AM AKDT 12:14 AM AKDT
Civil Twilight Sun does not set Sun does not set
Nautical Twilight Sun does not set Sun does not set
Astronomical Twilight Sun does not set Sun does not set
Moon 5:14 PM AKDT (6/12) 3:29 AM AKDT (6/12)
Length of Visible Light 24h 00m
Length of Day
20h 36m
Waxing Gibbous, 78% of the Moon is Illuminated
Jun 12
Waxing Gibbous
Jun 17
Full
Jun 25
Last Quarter
Jul 2
New
Jul 9
First Quarter

Hourly Weather History & Observations

Time (AKDT) Temp. Windchill Dew Point Humidity Pressure Visibility Wind Dir Wind Speed Gust Speed Precip Events Conditions
12:56 AM 46.0 °F - 41.0 °F 83% 29.88 in 10.0 mi Calm Calm - N/A   Clear
1:56 AM 44.1 °F - 39.9 °F 85% 29.90 in 10.0 mi Calm Calm - N/A   Clear
2:56 AM 42.1 °F - 39.0 °F 89% 29.91 in 10.0 mi Calm Calm - N/A   Clear
4:56 AM 42.1 °F 40.2 °F 39.0 °F 89% 29.91 in 10.0 mi SSW 3.5 mph - N/A   Overcast
5:56 AM 43.0 °F - 39.9 °F 89% 29.92 in 10.0 mi Calm Calm - N/A   Mostly Cloudy
6:56 AM 48.0 °F - 42.1 °F 80% 29.92 in 10.0 mi Calm Calm - N/A   Partly Cloudy
7:56 AM 48.9 °F - 43.0 °F 80% 29.91 in 10.0 mi Calm Calm - N/A   Overcast
8:56 AM 53.1 °F - 44.1 °F 71% 29.90 in 10.0 mi Calm Calm - N/A   Mostly Cloudy
9:56 AM 59.0 °F - 44.1 °F 58% 29.89 in 10.0 mi SW 3.5 mph - N/A   Clear
10:56 AM 60.1 °F - 43.0 °F 53% 29.88 in 10.0 mi Calm Calm - 0.00 in Rain Light Rain
11:56 AM 63.0 °F - 45.0 °F 52% 29.88 in 10.0 mi Variable 4.6 mph - 0.00 in   Scattered Clouds
12:56 PM 55.0 °F - 48.9 °F 80% 29.91 in 10.0 mi West 3.5 mph - 0.03 in Rain Light Rain
1:56 PM 59.0 °F - 46.0 °F 62% 29.91 in 10.0 mi Calm Calm - 0.00 in Rain Light Rain
2:56 PM 63.0 °F - 41.0 °F 45% 29.88 in 10.0 mi Variable 4.6 mph - 0.00 in Rain Light Rain
3:56 PM 66.9 °F - 41.0 °F 39% 29.87 in 10.0 mi SSW 10.4 mph 17.3 mph 0.00 in   Mostly Cloudy
4:56 PM 64.9 °F - 41.0 °F 42% 29.87 in 10.0 mi West 10.4 mph 17.3 mph N/A   Mostly Cloudy
5:56 PM 63.0 °F - 43.0 °F 48% 29.87 in 10.0 mi West 4.6 mph - 0.00 in   Overcast
6:56 PM 66.0 °F - 39.9 °F 38% 29.86 in 10.0 mi Variable 4.6 mph - 0.00 in   Scattered Clouds
7:40 PM 57.2 °F - 42.8 °F 59% 29.82 in 10.0 mi East 4.6 mph - 0.01 in Rain Light Rain
7:56 PM 57.0 °F - 46.0 °F 67% 29.87 in 10.0 mi Calm Calm - 0.01 in   Overcast
8:56 PM 57.0 °F - 46.9 °F 69% 29.87 in 10.0 mi Calm Calm - 0.01 in Rain Light Rain
9:56 PM 55.9 °F - 48.9 °F 77% 29.87 in 10.0 mi SW 3.5 mph - 0.00 in   Mostly Cloudy
10:56 PM 53.1 °F - 48.0 °F 83% 29.88 in 10.0 mi Calm Calm - N/A   Scattered Clouds
11:56 PM 48.9 °F - 46.0 °F 90% 29.91 in 10.0 mi SSW 3.5 mph - N/A   Partly Cloudy